Date,TemperatureHighF,TemperatureAvgF,TemperatureLowF,DewpointHighF,DewpointAvgF,DewpointLowF,HumidityHigh,HumidityAvg,HumidityLow,PressureMaxIn,PressureMinIn,WindSpeedMaxMPH,WindSpeedAvgMPH,GustSpeedMaxMPH,PrecipitationSumIn
2013-1-1,37,31,20,28,18,6,78,60,51,30.00,29.77,25,7,37,0.00
2013-1-2,29,20,10,16,11,1,77,66,54,30.21,29.98,17,2,28,0.00
2013-1-3,24,11,0,11,2,-5,78,65,42,30.22,30.05,7,0,10,0.00
2013-1-4,39,30,17,26,21,11,84,68,56,30.04,29.87,20,2,28,0.01
2013-1-5,40,36,25,26,22,17,78,59,43,30.30,29.91,26,5,30,0.03
2013-1-6,43,34,25,31,27,19,91,77,62,30.25,29.97,9,2,12,0.05
2013-1-7,37,33,21,31,24,16,89,71,52,30.42,30.01,15,2,17,0.00
2013-1-8,47,34,19,30,25,15,88,71,51,30.42,30.32,10,2,13,0.00
2013-1-9,46,32,20,36,27,18,93,83,48,30.42,30.05,18,2,25,0.00
2013-1-10,46,40,29,32,26,23,82,58,48,30.59,30.12,25,6,44,0.01
2013-1-11,35,30,24,33,27,21,96,87,76,30.59,30.23,3,0,4,0.22
2013-1-12,42,37,33,41,36,32,100,97,96,30.23,30.17,5,0,8,0.02
2013-1-13,47,42,37,47,42,36,99,98,96,30.18,30.04,8,1,13,0.01
2013-1-14,53,45,37,50,38,26,98,78,46,30.32,29.93,20,3,27,0.05
2013-1-15,40,36,30,28,26,24,84,68,57,30.39,30.26,9,1,14,0.00
2013-1-16,34,32,30,33,30,27,97,94,82,30.29,29.86,0,0,2,0.01
2013-1-17,41,34,28,33,26,10,97,74,48,30.16,29.89,16,3,23,0.29
2013-1-18,27,22,18,11,4,-3,61,46,37,30.48,30.09,19,4,27,0.00
2013-1-19,46,36,23,34,22,10,75,59,49,30.40,29.89,21,6,30,0.02
2013-1-20,50,42,39,34,32,26,75,67,43,29.88,29.61,21,6,29,0.00
2013-1-23,14,10,6,-1,-5,-8,59,48,40,30.24,30.15,24,7,27,0.00
2013-1-24,19,9,-1,-2,-5,-7,80,54,36,30.32,30.17,22,5,30,0.00
2013-1-25,22,14,8,1,-4,-6,51,44,36,30.42,30.19,10,1,15,0.00
2013-1-30,56,51,36,55,51,36,99,98,96,29.82,29.43,25,4,25,0.18
2013-1-31,61,46,31,59,36,13,97,71,44,29.64,28.97,33,12,48,1.07
2013-2-1,31,27,22,16,11,7,64,51,43,30.15,29.65,24,9,30,0.00
2013-2-2,30,24,16,16,10,3,78,54,41,30.28,30.07,20,3,21,0.00
2013-2-3,31,24,17,19,17,14,90,75,57,30.09,29.79,6,1,12,0.00
2013-2-4,28,24,19,17,13,8,85,65,45,29.99,29.79,24,5,31,0.00
2013-2-5,33,26,21,23,16,12,87,68,50,30.07,29.94,6,1,11,0.00
2013-2-6,37,29,23,27,18,6,91,66,39,30.36,29.94,19,5,29,0.00
2013-2-7,32,25,14,11,8,6,78,50,36,30.57,30.36,11,2,15,0.00
2013-2-8,30,26,20,28,20,8,94,79,43,30.48,29.76,20,3,27,0.00
2013-2-9,28,22,17,20,11,0,94,67,37,30.31,29.75,34,10,44,0.00
2013-2-10,38,21,5,12,5,-1,78,53,27,30.51,30.31,7,1,10,0.00
2013-2-11,35,27,16,34,24,10,97,89,72,30.37,29.68,5,0,6,0.12
2013-2-12,41,39,34,35,29,24,97,70,60,29.93,29.70,20,6,31,0.10
2013-2-13,43,36,33,26,25,24,72,63,49,29.92,29.75,11,1,13,0.00
2013-2-14,45,36,28,26,24,21,79,63,44,30.01,29.75,7,1,11,0.00
2013-2-15,52,40,31,36,32,26,96,73,54,30.02,29.92,11,2,20,0.00
2013-2-16,38,34,28,32,24,10,95,70,45,30.00,29.78,19,3,25,0.05
2013-2-17,28,23,15,11,5,1,55,46,36,29.84,29.57,31,12,40,0.00
2013-2-18,31,21,13,6,2,0,56,44,29,30.20,29.85,24,7,33,0.00
2013-2-19,46,33,20,40,24,7,96,71,48,30.21,29.61,14,1,33,0.07
2013-2-20,39,30,26,38,19,13,96,63,45,29.87,29.61,28,10,31,0.01
2013-2-21,30,27,24,19,15,11,70,60,52,30.30,29.85,24,8,27,0.00
2013-2-22,41,32,23,27,22,16,83,66,49,30.44,30.30,13,3,18,0.00
2013-2-23,37,35,34,35,30,26,100,84,71,30.34,29.94,9,2,13,0.02
2013-2-24,38,35,33,36,34,32,97,95,92,29.94,29.78,13,2,15,0.10
2013-2-25,40,35,30,32,31,28,96,85,72,30.28,29.95,8,1,11,0.04
2013-2-26,43,36,32,34,31,28,95,81,60,30.37,30.17,9,1,13,0.00
2013-2-27,43,38,33,41,35,30,96,90,75,30.16,29.64,9,2,22,1.01
2013-2-28,42,37,33,38,34,32,97,92,81,29.68,29.58,5,0,7,0.00
2013-3-1,43,38,32,36,30,26,97,76,56,29.75,29.59,14,2,19,0.01
2013-3-2,41,36,33,29,27,24,78,69,61,29.75,29.69,14,3,19,0.00
2013-3-3,36,32,28,30,25,22,92,76,69,29.72,29.65,16,4,20,0.00
2013-3-4,37,32,26,24,22,20,75,69,59,29.86,29.71,23,7,28,0.00
2013-3-5,47,37,30,30,26,21,75,65,52,30.11,29.86,16,3,21,0.00
2013-3-6,42,37,34,35,32,28,89,79,69,30.14,30.06,16,4,25,0.00
2013-3-7,38,34,31,34,30,28,99,85,68,30.13,30.07,19,5,24,0.01
2013-3-8,42,35,31,32,29,26,95,81,56,30.24,30.01,18,6,29,0.02
2013-3-9,58,44,33,27,22,15,71,47,19,30.37,30.22,15,4,22,0.00
2013-3-10,54,40,26,35,30,22,91,68,43,30.46,30.31,13,2,19,0.00
2013-3-11,52,44,37,44,38,33,89,78,66,30.35,30.16,15,4,18,0.00
2013-3-12,55,51,45,54,48,39,96,91,80,30.16,29.72,16,4,20,1.01
2013-3-13,48,42,35,39,29,23,85,62,40,29.86,29.79,23,4,25,0.00
2013-3-14,37,30,24,28,16,11,75,56,47,29.91,29.83,20,7,32,0.00
2013-3-15,41,31,24,31,19,9,91,61,38,29.94,29.71,19,4,22,0.00
2013-3-16,39,33,27,26,18,15,70,53,39,29.92,29.75,19,2,23,0.00
2013-3-17,37,31,24,19,13,8,67,48,30,30.36,29.92,21,5,27,0.00
2013-3-18,39,29,18,26,10,5,86,46,24,30.51,30.23,11,2,17,0.00
2013-3-19,36,32,29,34,30,26,96,95,87,30.22,29.72,10,1,15,0.19
2013-3-20,38,32,26,30,22,20,96,68,50,29.86,29.76,25,5,27,0.11
2013-3-21,41,31,20,24,18,14,91,62,35,29.86,29.66,9,1,13,0.19
2013-3-22,38,31,22,26,20,16,79,64,50,29.83,29.69,17,4,24,0.01
2013-3-23,40,36,30,28,22,20,88,60,45,29.87,29.77,22,7,33,0.00
2013-3-24,45,38,31,27,24,23,72,59,46,29.91,29.78,15,4,21,0.00
2013-3-25,46,38,31,30,27,24,77,64,48,29.81,29.55,14,2,23,0.00
2013-3-26,47,39,31,33,28,22,81,64,41,29.86,29.61,14,2,25,0.00
2013-3-27,52,39,25,34,28,21,89,66,38,29.93,29.84,21,3,25,0.00
2013-3-28,50,44,37,37,33,31,91,68,50,30.09,29.93,13,2,18,0.00
2013-3-29,54,46,36,35,33,31,86,64,43,30.13,30.05,15,4,20,0.00
2013-3-30,55,46,32,34,28,21,87,53,28,30.15,30.07,15,3,26,0.00
2013-3-31,57,43,28,42,30,23,85,64,33,30.15,29.75,20,3,29,0.06
2013-4-1,59,44,34,46,34,15,100,73,39,29.87,29.57,32,6,34,0.24
2013-4-2,38,33,27,24,18,14,84,55,40,30.03,29.87,32,8,34,0.00
2013-4-3,43,35,30,22,17,14,66,48,32,30.26,30.01,28,11,35,0.00
2013-4-4,57,42,28,29,22,17,69,47,25,30.39,30.08,17,4,21,0.00
2013-4-5,58,46,38,32,29,25,81,55,30,30.07,29.73,27,7,32,0.00
2013-4-6,48,38,31,30,15,10,76,40,23,30.36,29.96,18,6,30,0.00
2013-4-7,56,43,27,42,29,15,83,60,42,30.35,30.01,25,5,35,0.00
2013-4-8,68,52,38,43,39,36,96,66,32,30.13,30.00,11,2,17,0.00
2013-4-9,65,58,49,52,45,39,90,64,49,30.05,29.92,21,4,33,0.02
2013-4-10,65,56,48,54,50,44,96,82,60,30.03,29.87,6,1,11,0.27
2013-4-11,53,47,38,52,39,31,97,75,49,30.18,29.88,16,5,21,0.07
2013-4-12,39,37,36,37,35,34,100,93,88,30.18,29.85,10,1,15,0.53
2013-4-13,52,44,35,41,37,34,96,77,56,29.98,29.83,12,2,15,0.09
2013-4-14,51,45,35,38,32,27,91,64,44,30.27,29.95,21,4,30,0.00
2013-4-15,60,46,30,37,32,26,90,62,40,30.45,30.27,10,2,14,0.00
2013-4-16,66,53,42,53,44,34,86,73,54,30.42,30.11,18,6,31,0.04
2013-4-17,66,57,49,53,38,30,93,54,31,30.36,30.13,19,4,21,0.01
2013-4-18,63,52,36,45,35,31,83,55,37,30.44,30.22,18,3,24,0.00
2013-4-19,73,68,62,64,62,60,95,83,70,29.97,29.66,24,9,36,0.24
2013-4-20,64,50,40,62,38,24,94,66,38,30.31,29.67,24,6,27,0.47
2013-4-21,54,43,34,26,22,19,62,45,26,30.69,30.32,14,3,21,0.00
2013-4-22,56,44,31,33,28,24,82,56,32,30.78,30.62,16,3,23,0.00
2013-4-23,44,41,37,39,35,30,88,80,73,30.62,30.18,12,2,16,0.00
2013-4-24,76,56,42,50,45,39,91,70,37,30.17,29.81,19,4,25,0.00
2013-4-25,60,52,42,51,35,23,94,55,25,30.32,29.86,22,5,24,0.01
2013-4-26,66,51,33,38,34,29,85,55,30,30.45,30.32,13,2,16,0.00
2013-4-27,70,54,37,42,36,31,84,55,28,30.47,30.30,14,2,21,0.00
2013-4-28,73,58,39,45,40,31,90,55,29,30.37,30.22,14,2,22,0.00
2013-4-29,66,58,51,49,39,28,76,51,31,30.31,30.23,14,3,20,0.00
2013-4-30,73,60,52,42,36,29,70,44,25,30.39,30.28,10,2,16,0.00
2013-5-1,77,68,55,47,40,33,61,37,24,30.52,30.41,10,2,17,0.00
2013-5-2,83,62,43,49,42,36,85,53,26,30.51,30.31,19,2,28,0.00
2013-5-3,69,58,45,47,42,37,76,56,42,30.56,30.39,13,2,17,0.00
2013-5-4,73,58,42,50,40,26,94,58,25,30.42,30.26,15,3,20,0.00
2013-5-5,72,55,36,45,38,31,85,55,27,30.37,30.22,14,2,18,0.00
2013-5-6,75,58,41,52,44,38,92,64,27,30.35,30.14,9,2,13,0.00
2013-5-7,81,65,46,59,52,44,93,65,32,30.22,30.09,12,3,18,0.00
2013-5-8,73,64,54,63,59,53,96,85,63,30.21,30.07,19,3,23,0.48
2013-5-9,71,63,58,61,59,56,97,87,65,30.06,29.91,11,1,16,0.06
2013-5-10,80,66,54,63,57,54,99,77,48,30.04,29.92,10,2,15,0.00
2013-5-11,69,64,60,64,60,56,96,89,70,29.92,29.71,17,4,25,0.33
2013-5-12,67,59,49,61,48,33,96,71,42,29.87,29.65,21,2,31,0.02
2013-5-13,53,48,44,36,32,29,70,53,42,30.10,29.87,20,5,28,0.00
2013-5-14,58,49,39,36,34,30,84,57,36,30.14,30.04,11,2,18,0.00
2013-5-15,62,48,32,55,42,30,94,81,49,30.12,29.71,20,2,22,0.08
2013-5-16,81,67,50,52,45,38,96,51,26,29.84,29.69,25,5,31,0.00
2013-5-17,70,60,49,45,42,36,81,53,31,30.26,29.84,15,3,22,0.00
2013-5-18,74,60,43,51,45,40,91,62,34,30.38,30.26,13,2,20,0.00
2013-5-19,66,58,50,57,53,46,97,85,67,30.39,30.24,11,3,15,0.09
2013-5-20,83,68,56,68,62,56,98,83,59,30.23,29.97,6,1,13,0.01
2013-5-21,89,69,55,73,64,53,98,86,55,30.07,29.82,19,2,30,0.37
2013-5-22,78,65,54,71,62,53,98,90,76,30.07,29.87,11,2,17,1.19
2013-5-23,74,69,66,71,67,65,97,95,88,29.91,29.81,18,4,19,1.56
2013-5-24,68,60,46,66,57,45,98,89,74,29.94,29.68,19,4,23,0.42
2013-5-25,47,46,43,46,43,40,95,92,87,29.94,29.84,17,5,25,0.49
2013-5-26,56,49,42,45,42,39,92,77,60,30.17,29.83,21,4,28,0.03
2013-5-27,72,58,40,46,41,38,95,59,31,30.27,30.14,17,3,24,0.00
2013-5-28,75,60,42,57,48,40,94,68,37,30.31,30.18,10,1,18,0.00
2013-5-29,75,64,59,68,62,57,96,92,78,30.20,30.00,19,2,33,0.64
2013-5-30,89,75,64,74,68,63,99,81,53,30.17,30.06,13,1,18,0.00
2013-5-31,95,80,62,74,68,62,98,71,36,30.19,29.99,10,2,15,0.00
2013-6-1,94,81,69,73,68,64,86,68,42,30.06,29.89,17,4,21,0.00
2013-6-2,88,76,69,73,69,67,95,81,60,29.93,29.75,19,4,25,0.31
2013-6-3,78,69,57,69,62,41,98,80,47,29.93,29.82,14,2,16,0.31
2013-6-4,73,62,51,50,46,40,75,56,41,30.15,29.93,19,3,32,0.00
2013-6-5,76,63,48,54,50,46,93,65,41,30.29,30.13,10,1,14,0.00
2013-6-6,74,63,53,57,53,49,93,72,42,30.26,30.12,14,2,17,0.11
2013-6-7,57,56,53,56,54,52,98,95,88,30.13,29.85,6,0,10,1.81
2013-6-8,75,64,53,64,58,52,98,83,65,30.07,29.70,17,3,19,0.48
2013-6-9,79,68,55,60,57,53,96,72,44,30.23,30.07,13,2,21,0.00
2013-6-10,67,61,54,64,59,53,97,93,85,30.24,30.01,8,0,13,1.10
2013-6-11,68,61,58,62,59,57,100,94,80,30.00,29.62,8,1,14,1.09
2013-6-12,72,65,56,59,55,53,91,73,57,29.89,29.63,20,4,27,0.00
2013-6-13,59,55,50,58,54,49,97,96,91,29.87,29.72,5,0,15,1.23
2013-6-14,76,61,52,59,54,49,97,80,40,29.86,29.70,12,1,15,0.49
2013-6-15,79,66,52,57,51,45,97,64,34,30.04,29.86,13,2,19,0.00
2013-6-16,75,65,50,63,56,48,93,73,57,30.01,29.74,17,2,18,0.00
2013-6-17,85,71,60,67,62,57,95,76,43,29.95,29.81,17,2,29,0.35
2013-6-18,69,62,58,66,61,57,99,95,87,29.98,29.93,7,1,13,0.11
2013-6-19,77,64,54,57,51,45,97,67,40,30.21,29.96,13,2,17,0.01
2013-6-20,81,66,46,59,52,45,95,66,32,30.36,30.21,11,2,16,0.00
2013-6-21,86,72,60,66,59,54,86,67,35,30.34,30.23,10,3,11,0.00
2013-6-22,87,75,63,68,62,57,84,65,41,30.29,30.15,14,4,20,0.00
2013-6-23,92,78,66,75,67,58,81,68,51,30.21,30.03,16,4,20,0.00
2013-6-24,92,79,69,74,71,65,95,79,53,30.08,29.93,17,3,25,0.03
2013-6-25,92,78,65,74,69,64,98,78,48,30.00,29.77,20,2,35,0.02
2013-6-26,82,76,69,73,70,68,96,82,66,29.87,29.78,12,1,16,0.01
2013-6-27,82,73,66,73,69,65,98,89,72,29.87,29.73,14,2,18,0.00
2013-6-28,85,74,67,74,70,65,96,88,67,29.73,29.48,20,6,25,1.63
2013-6-29,85,77,72,72,71,69,96,82,59,29.75,29.52,17,4,26,0.00
2013-6-30,87,77,70,74,71,68,96,84,62,29.96,29.75,14,3,18,0.00
2013-7-1,77,75,73,75,73,71,98,93,89,30.10,29.96,9,2,14,0.49
2013-7-2,86,78,74,76,73,71,95,86,70,30.20,30.10,13,4,17,0.01
2013-7-3,89,80,74,76,73,71,93,81,59,30.27,30.18,13,4,20,0.00
2013-7-4,93,82,74,77,74,72,96,78,55,30.29,30.17,16,4,18,0.00
2013-7-5,94,89,81,78,75,72,81,64,50,30.23,30.07,14,3,19,0.00
2013-7-6,91,82,75,76,73,71,91,76,55,30.15,30.04,12,2,23,0.00
2013-7-7,93,77,69,78,72,68,97,87,60,30.09,29.96,12,1,17,0.67
2013-7-8,88,78,72,75,72,70,99,85,58,30.07,29.96,10,1,14,0.00
2013-7-9,82,75,71,74,71,70,96,89,76,30.13,30.05,9,1,13,0.01
2013-7-10,86,77,73,78,74,70,96,90,74,30.08,29.83,16,4,22,0.50
2013-7-11,84,77,70,75,71,64,97,84,56,29.99,29.81,6,2,10,0.00
2013-7-12,82,73,66,67,63,58,87,72,57,30.23,29.99,10,2,14,0.00
2013-7-13,78,71,65,72,66,59,96,85,69,30.36,30.23,6,1,7,0.06
2013-7-14,91,80,71,76,73,70,98,81,56,30.38,30.25,8,1,15,0.00
2013-7-15,92,81,71,76,73,70,97,78,52,30.30,30.15,11,1,15,0.00
2013-7-16,93,82,70,74,71,68,97,72,46,30.26,30.16,12,1,17,0.00
2013-7-17,95,83,69,76,72,68,97,74,50,30.27,30.06,7,1,14,0.00
2013-7-18,95,85,76,77,74,72,92,72,51,30.09,29.97,11,2,14,0.00
2013-7-19,96,86,73,78,75,71,94,72,52,29.98,29.76,19,4,22,0.00
2013-7-20,89,82,71,78,72,64,89,72,57,29.87,29.72,15,2,19,0.00
2013-7-21,86,76,64,70,66,62,94,74,50,30.02,29.88,7,0,9,0.00
2013-7-22,87,74,65,73,68,64,96,84,54,30.05,29.88,11,1,15,0.28
2013-7-23,84,74,69,77,71,68,99,91,68,29.88,29.58,11,1,15,2.53
2013-7-24,80,73,63,73,66,54,100,78,53,30.03,29.63,17,3,19,0.00
2013-7-25,71,63,57,61,55,49,85,74,62,30.15,30.04,13,2,16,0.00
2013-7-26,73,66,62,65,62,60,96,89,74,30.10,30.03,6,0,13,0.17
2013-7-27,85,70,57,69,63,56,100,81,51,30.13,30.04,10,2,14,0.01
2013-7-28,82,73,65,70,66,63,96,81,58,30.05,29.98,9,1,14,0.00
2013-7-29,87,76,69,70,66,61,94,73,45,30.11,29.99,17,2,18,0.00
2013-7-30,80,71,59,62,60,57,93,70,49,30.21,30.10,11,2,17,0.00
2013-7-31,83,71,58,64,60,56,96,72,43,30.22,30.07,6,1,10,0.00
2013-8-1,79,68,59,69,64,58,97,89,69,30.08,29.90,13,2,20,0.21
2013-8-2,82,73,65,68,64,59,98,76,47,29.92,29.83,14,2,18,0.23
2013-8-3,80,70,62,64,61,52,96,74,50,29.91,29.83,12,2,16,0.00
2013-8-4,77,67,56,61,56,54,93,71,50,29.96,29.85,17,2,19,0.00
2013-8-5,76,64,52,56,52,47,96,68,40,30.09,29.96,16,2,21,0.00
2013-8-6,81,66,50,60,54,48,95,69,40,30.20,30.09,9,1,13,0.00
2013-8-7,80,70,59,64,60,57,96,74,46,30.23,30.12,11,2,17,0.00
2013-8-8,82,75,68,73,69,63,96,84,71,30.13,30.04,12,4,16,0.00
2013-8-9,79,75,73,76,73,71,97,94,88,30.05,29.80,10,3,23,2.61
2013-8-10,80,73,65,71,60,47,96,67,37,30.08,29.86,20,3,25,0.00
2013-8-11,79,66,53,61,56,51,95,72,47,30.16,30.05,11,1,15,0.00
2013-8-12,83,70,58,66,61,57,97,76,49,30.08,29.96,9,1,13,0.00
2013-8-13,75,70,66,70,66,62,97,89,78,29.97,29.72,7,2,12,0.28
2013-8-14,72,65,57,66,55,51,97,72,54,30.03,29.74,20,3,25,0.00
2013-8-15,75,63,50,59,54,48,95,75,46,30.17,30.04,14,2,18,0.00
2013-8-16,80,65,51,60,56,50,96,75,43,30.22,30.17,9,1,11,0.00
2013-8-17,82,75,62,63,60,55,93,63,41,30.32,30.27,6,1,10,0.00
2013-8-18,78,67,57,67,62,56,96,85,63,30.32,30.14,5,0,6,0.00
2013-8-19,80,70,58,67,62,58,97,79,55,30.14,30.03,6,1,11,0.00
2013-8-20,85,71,57,66,62,56,97,77,48,30.16,30.05,9,1,12,0.00
2013-8-21,88,73,59,69,64,58,97,77,46,30.21,30.07,12,1,14,0.00
2013-8-22,85,75,62,74,69,61,96,82,67,30.09,29.87,12,3,18,0.23
2013-8-23,80,71,62,70,62,55,97,74,49,30.19,29.89,16,2,20,0.00
2013-8-24,79,65,54,59,55,51,94,72,46,30.38,30.19,10,1,14,0.00
2013-8-25,83,67,50,61,56,48,97,73,43,30.43,30.23,10,1,13,0.00
2013-8-26,82,72,64,70,64,59,96,78,65,30.23,29.93,9,2,13,0.20
2013-8-27,86,75,69,73,70,68,98,86,60,29.94,29.86,12,1,14,0.16
2013-8-28,89,74,66,74,70,65,99,87,55,29.97,29.87,11,1,21,0.00
2013-8-29,75,69,66,69,65,62,96,88,76,30.10,29.96,14,1,18,0.00
2013-8-30,86,73,62,71,66,60,94,80,57,30.08,29.87,10,2,11,0.00
2013-8-31,82,76,71,75,72,69,97,90,80,29.88,29.81,10,3,17,0.22
2013-9-1,81,75,69,76,72,68,98,92,82,29.91,29.85,9,1,23,0.74
2013-9-2,81,75,72,76,73,69,98,92,76,29.88,29.74,8,2,14,0.16
2013-9-3,76,71,66,72,67,63,98,88,70,29.83,29.74,6,1,9,0.00
2013-9-4,80,73,60,62,59,56,93,63,46,29.98,29.92,15,3,18,0.00
2013-9-5,72,63,52,63,54,46,97,77,43,30.20,29.92,14,1,17,0.01
2013-9-6,70,57,44,51,46,39,94,71,41,30.30,30.15,10,1,12,0.00
2013-9-7,80,62,46,62,53,45,96,76,44,30.15,29.92,12,1,13,0.01
2013-9-8,71,64,52,63,55,44,96,75,41,30.15,29.82,14,2,23,0.00
2013-9-9,71,57,42,53,47,40,95,72,50,30.30,30.15,10,2,14,0.00
2013-9-10,78,68,59,72,65,53,97,89,77,30.20,30.06,12,4,16,0.36
2013-9-11,95,80,70,80,74,69,98,84,59,30.12,29.97,13,2,23,0.43
2013-9-12,85,74,68,77,71,67,98,90,72,30.02,29.71,13,2,23,0.46
2013-9-13,75,67,59,69,64,54,99,90,72,29.85,29.65,12,1,19,0.33
2013-9-14,65,59,52,55,52,50,96,80,65,30.12,29.85,12,1,14,0.00
2013-9-15,71,58,44,57,51,43,97,80,54,30.23,30.10,9,1,10,0.00
2013-9-16,68,58,48,58,52,38,95,80,63,30.32,30.06,14,2,18,0.03
2013-9-17,64,51,40,48,42,37,94,73,49,30.50,30.32,10,2,16,0.00
2013-9-18,74,54,40,54,47,39,98,80,49,30.39,30.19,11,1,13,0.00
2013-9-19,78,59,43,59,52,42,100,80,43,30.21,30.08,5,0,10,0.00
2013-9-20,80,62,47,62,54,46,98,80,46,30.14,30.03,9,1,12,0.00
2013-9-21,74,66,59,67,62,56,94,85,69,30.06,29.71,16,5,24,0.06
2013-9-22,71,62,52,68,55,45,96,78,58,29.92,29.63,14,4,22,0.64
2013-9-23,62,52,42,47,44,40,95,75,56,30.08,29.92,13,2,19,0.00
2013-9-24,67,52,37,48,43,36,96,75,44,30.08,29.88,13,2,19,0.00
2013-9-25,72,57,41,57,49,40,96,79,54,30.03,29.91,5,0,10,0.00
2013-9-26,67,58,51,54,50,47,93,77,55,30.17,30.03,11,1,12,0.00
2013-9-27,64,57,51,55,52,49,95,85,70,30.33,30.17,7,1,12,0.00
2013-9-28,75,58,45,60,53,44,98,84,55,30.39,30.30,9,1,10,0.00
2013-9-29,73,57,47,59,51,46,100,84,52,30.31,30.13,11,1,15,0.01
2013-9-30,74,56,43,56,49,42,98,81,45,30.16,30.00,7,1,14,0.00
2013-10-1,78,59,45,62,53,45,99,85,55,30.04,29.90,5,1,11,0.01
2013-10-2,78,65,50,64,57,49,98,78,57,30.02,29.92,16,2,26,0.00
2013-10-3,77,62,48,55,52,47,96,72,38,30.15,30.02,9,1,12,0.00
2013-10-4,64,57,51,60,55,50,96,94,88,30.13,30.08,9,0,16,0.27
2013-10-5,71,63,58,63,60,58,100,91,74,30.15,30.09,4,0,5,0.13
2013-10-6,61,58,54,61,57,54,99,96,92,30.24,30.13,7,1,12,0.44
2013-10-7,77,62,55,72,60,54,100,93,75,30.16,29.79,30,3,39,0.63
2013-10-8,67,56,45,54,46,39,92,70,38,30.42,29.98,16,2,22,0.00
2013-10-9,66,51,39,49,44,38,97,80,44,30.55,30.40,10,2,14,0.00
2013-10-10,58,54,45,51,50,43,94,85,75,30.41,30.23,4,0,5,0.00
2013-10-11,73,57,47,56,48,40,97,75,31,30.22,30.11,11,1,14,0.00
2013-10-12,64,56,50,56,52,48,92,87,74,30.43,30.19,9,1,18,0.00
2013-10-13,62,56,50,51,50,47,88,80,64,30.50,30.41,10,1,16,0.00
2013-10-14,55,50,47,50,46,44,92,89,80,30.43,30.39,10,1,13,0.00
2013-10-16,60,57,52,53,52,50,95,84,74,30.06,29.97,5,0,7,0.00
2013-10-17,75,64,54,61,56,52,94,78,53,29.97,29.76,11,2,15,0.05
2013-10-18,65,61,48,62,51,41,95,71,49,29.98,29.65,21,5,30,0.06
2013-10-19,66,54,41,49,43,39,94,69,44,30.01,29.81,13,2,18,0.00
2013-10-20,61,54,42,50,42,35,85,66,39,30.10,29.75,16,4,24,0.02
2013-10-21,68,53,42,45,41,37,91,64,41,30.18,30.01,13,2,16,0.00
2013-10-22,62,55,51,53,46,40,88,72,66,30.00,29.75,17,5,18,0.00
2013-10-23,52,48,35,40,38,32,93,68,47,29.83,29.63,9,1,10,0.00
2013-10-24,52,47,40,37,32,26,78,59,37,29.95,29.71,21,4,26,0.00
2013-10-25,49,46,40,36,30,29,87,53,46,30.20,29.95,18,4,23,0.00
2013-10-26,55,48,38,36,32,30,83,54,41,30.19,29.90,19,3,26,0.00
2013-10-27,53,50,47,37,33,32,66,52,46,30.10,29.82,18,5,23,0.00
2013-10-28,57,51,39,38,34,33,81,53,45,30.39,30.10,18,4,28,0.00
2013-10-29,52,48,32,34,28,24,85,48,36,30.50,30.39,9,1,11,0.00
2013-10-30,54,48,46,42,30,24,69,52,42,30.40,30.22,5,0,7,0.00
2013-10-31,50,50,50,41,41,41,69,69,69,30.27,29.81,0,0,0,0.00
2013-11-1,70,59,50,64,50,41,93,72,59,29.80,29.48,20,3,30,0.13
2013-11-2,66,54,43,49,45,40,93,75,48,29.80,29.63,13,1,20,0.00
2013-11-3,50,41,32,45,29,19,85,62,39,30.48,29.80,18,4,20,0.00
2013-11-4,43,34,26,23,20,18,81,58,39,30.74,30.49,14,2,16,0.00
2013-11-5,51,37,25,36,28,21,88,72,53,30.75,30.57,12,1,15,0.00
2013-11-8,46,42,37,36,28,25,75,59,47,30.15,29.96,31,7,31,0.00
2013-11-9,46,40,30,32,28,24,79,63,52,30.27,30.04,10,2,16,0.00
2013-11-10,51,46,41,40,36,30,88,70,56,30.03,29.80,24,4,39,0.00
2013-11-11,49,43,39,31,29,28,64,57,47,30.16,29.96,22,7,30,0.00
2013-11-12,36,32,28,19,18,16,62,57,50,30.27,30.14,19,6,24,0.00
2013-11-13,35,30,25,20,16,13,67,56,40,30.38,30.22,16,3,24,0.00
2013-11-14,52,41,30,28,23,19,68,50,37,30.22,30.09,14,4,22,0.00
2013-11-15,60,44,28,35,26,20,76,51,27,30.27,30.14,9,2,16,0.00
2013-11-16,61,46,36,37,33,30,83,63,34,30.35,30.23,5,1,9,0.00
2013-11-17,52,42,35,51,40,31,98,91,83,30.33,29.84,4,0,5,0.06
2013-11-18,65,58,47,61,47,32,98,68,44,29.84,29.55,21,6,27,0.34
2013-11-19,47,39,31,33,24,20,63,55,47,30.37,29.74,25,8,34,0.00
2013-11-20,41,32,25,20,18,16,72,57,37,30.67,30.37,17,2,20,0.00
2013-11-21,46,34,20,33,24,16,92,67,43,30.69,30.42,5,1,11,0.00
2013-11-22,46,42,38,45,40,33,98,91,69,30.41,29.88,7,0,16,0.09
2013-11-23,50,38,26,47,27,20,98,65,47,30.02,29.86,22,8,30,0.00
2013-11-24,27,23,18,19,7,1,77,51,34,30.30,29.90,28,11,44,0.01
2013-11-25,34,26,16,17,9,0,54,48,37,30.45,30.30,13,3,22,0.00
2013-11-26,38,34,28,32,24,16,95,69,49,30.36,30.05,13,2,18,0.15
2013-11-27,47,40,33,46,38,30,98,94,74,30.03,29.33,18,2,21,2.75
2013-11-28,38,29,23,30,16,10,74,59,43,30.49,29.56,25,8,36,0.00
2013-11-29,34,27,19,20,16,11,85,64,44,30.79,30.50,12,1,18,0.00
2013-11-30,32,24,13,21,14,9,86,66,50,30.85,30.46,7,1,9,0.00
2013-12-1,38,33,28,34,28,19,92,81,66,30.45,30.06,2,0,3,0.00
2013-12-2,40,37,32,38,34,30,96,90,86,30.07,29.94,4,0,4,0.00
2013-12-3,48,37,31,39,34,28,97,89,70,30.02,29.90,6,1,12,0.00
2013-12-4,45,33,25,33,28,24,95,84,61,30.23,30.02,6,0,6,0.01
2013-12-5,51,38,30,51,36,28,99,94,88,30.22,29.95,14,1,14,0.09
2013-12-6,54,45,33,54,41,32,99,88,70,30.20,29.90,11,1,15,0.29
2013-12-7,38,34,30,34,28,22,100,79,59,30.51,30.14,14,2,24,0.17
2013-12-8,32,29,24,25,21,17,92,71,55,30.64,30.50,5,0,9,0.00
2013-12-9,33,30,26,32,28,20,97,92,69,30.52,29.95,6,0,11,0.00
2013-12-10,36,32,24,34,29,19,100,89,72,30.05,29.84,8,1,17,0.01
2013-12-11,30,26,22,23,20,17,86,78,67,30.28,30.06,12,3,17,0.00
2013-12-12,25,21,17,20,10,4,84,64,44,30.35,30.11,17,4,26,0.00
2013-12-13,29,23,17,20,13,8,79,67,56,30.41,30.04,15,4,21,0.00
2013-12-14,20,12,10,11,6,0,90,75,61,30.67,30.18,11,3,15,0.00
2013-12-15,31,24,14,29,21,11,94,90,81,30.16,29.56,25,4,25,0.00
2013-12-16,28,24,16,23,13,8,85,64,47,30.24,29.77,20,6,28,0.00
2013-12-17,16,9,0,12,6,-3,90,86,68,30.32,30.03,9,2,14,0.00
2013-12-18,31,23,15,25,19,12,90,83,76,30.12,29.98,6,1,11,0.08
2013-12-19,43,33,23,29,25,19,88,72,54,30.15,30.00,16,2,20,0.11
2013-12-20,44,38,30,36,31,26,92,78,65,30.14,29.95,7,0,9,0.17
2013-12-21,55,46,34,48,40,31,91,81,68,30.01,29.88,6,1,11,0.02
2013-12-22,64,58,49,60,55,47,98,91,84,29.97,29.74,15,5,22,0.01
2013-12-23,59,44,37,56,42,30,98,93,75,30.18,29.94,11,1,21,0.54
2013-12-24,37,32,22,30,20,9,77,62,51,30.32,30.11,21,5,27,0.00
2013-12-25,24,20,14,10,6,4,65,55,43,30.57,30.32,21,4,23,0.01
2013-12-26,29,24,20,26,18,9,99,79,59,30.52,30.15,6,0,7,0.00
2013-12-27,36,30,19,25,22,16,89,72,56,30.35,30.25,8,2,14,0.04
2013-12-28,48,36,28,32,27,23,85,71,51,30.26,30.05,12,2,17,0.00
2013-12-29,40,34,28,37,32,26,97,91,77,30.07,29.53,13,1,18,1.17
2013-12-30,41,30,17,37,21,8,97,70,46,30.23,29.62,16,4,25,0.01
2013-12-31,25,19,12,19,11,7,86,69,52,30.26,30.07,18,2,23,0.00
2014-1-1,27,22,17,14,10,6,72,60,48,30.42,30.24,20,3,25,0.00
2014-1-2,21,14,7,17,11,4,91,87,73,30.38,29.90,14,4,18,0.00